Change the Weather History Date:

Thursday, November 29, 2012

  Actual Average (KN60) Record (KN60)
Temperature  
Mean Temperature 18 °F -  
Max Temperature 23 °F 30 °F 46 °F (2011)
Min Temperature 14 °F 14 °F -5 °F (2006)
Degree Days  
Heating Degree Days 46    
Moisture  
Dew Point 11 °F    
Average Humidity 76    
Maximum Humidity 93    
Minimum Humidity 58    
Precipitation  
Precipitation 0.00 in - - ()
Sea Level Pressure  
Sea Level Pressure 30.06 in    
Wind  
Wind Speed 10 mph (ESE)    
Max Wind Speed 14 mph    
Max Gust Speed 21 mph    
Visibility 9 miles    
Events      
Averages and records for this station are not official NWS values.
T = Trace of Precipitation, MM = Missing Value Source: NWS Daily Summary

Daily Weather History Graph

Daily Weather History Graph

Search for Another Location

Airport or City:

Trip Planner

Search our weather history database for the weather conditions in past years. The results will help you decide how hot, cold, wet, or windy it might be!

Date:

Astronomy

Nov. 29, 2012 Rise Set
Actual Time 8:10 AM CST 4:58 PM CST
Civil Twilight 7:35 AM CST 5:33 PM CST
Nautical Twilight 6:57 AM CST 6:11 PM CST
Astronomical Twilight 6:20 AM CST 6:48 PM CST
Moon 6:02 PM CST (11/29) 8:59 AM CST (11/29)
Length of Visible Light 9h 57m
Length of Day
8h 48m
Full, 99% of the Moon is Illuminated
Nov 29
Full
Dec 6
Last Quarter
Dec 13
New
Dec 19
First Quarter
Dec 28
Full

Hourly Weather History & Observations

Time (CST) Temp. Windchill Dew Point Humidity Pressure Visibility Wind Dir Wind Speed Gust Speed Precip Events Conditions
12:15 AM 23.0 °F 13.1 °F 19.4 °F 86% 30.09 in 5.0 mi East 9.2 mph - N/A   Overcast
12:35 AM 23.0 °F 12.4 °F 19.4 °F 86% 30.08 in 4.0 mi East 10.4 mph - N/A   Overcast
12:55 AM 23.0 °F 10.6 °F 19.4 °F 86% 30.08 in 4.0 mi East 13.8 mph - N/A   Overcast
1:15 AM 23.0 °F 11.7 °F 19.4 °F 86% 30.07 in 4.0 mi ENE 11.5 mph - N/A   Overcast
1:35 AM 21.2 °F 9.5 °F 19.4 °F 93% 30.07 in 2.5 mi East 11.5 mph - N/A   Overcast
1:55 AM 21.2 °F 11.7 °F 19.4 °F 93% 30.07 in 3.0 mi East 8.1 mph 17.3 mph N/A   Overcast
2:15 AM 21.2 °F 10.1 °F 19.4 °F 93% 30.06 in 4.0 mi ENE 10.4 mph 17.3 mph N/A   Overcast
2:35 AM 21.2 °F 9.5 °F 19.4 °F 93% 30.06 in 4.0 mi East 11.5 mph - N/A   Overcast
2:55 AM 19.4 °F 6.6 °F 17.6 °F 93% 30.06 in 5.0 mi East 12.7 mph 17.3 mph N/A   Overcast
3:35 AM 17.6 °F 3.7 °F 15.8 °F 93% 30.07 in 5.0 mi East 13.8 mph 17.3 mph N/A   Overcast
3:55 AM 17.6 °F 5.0 °F 15.8 °F 93% 30.07 in 7.0 mi East 11.5 mph - N/A   Overcast
4:15 AM 15.8 °F 1.4 °F 14.0 °F 93% 30.06 in 10.0 mi East 13.8 mph 17.3 mph N/A   Overcast
4:35 AM 15.8 °F 1.4 °F 10.4 °F 79% 30.05 in 10.0 mi East 13.8 mph 20.7 mph N/A   Overcast
4:55 AM 14.0 °F -0.2 °F 8.6 °F 79% 30.06 in 10.0 mi East 12.7 mph 18.4 mph N/A   Overcast
5:15 AM 14.0 °F 0.5 °F 8.6 °F 79% 30.06 in 10.0 mi East 11.5 mph - N/A   Overcast
5:35 AM 14.0 °F -0.8 °F 8.6 °F 79% 30.06 in 10.0 mi East 13.8 mph 18.4 mph N/A   Overcast
5:55 AM 14.0 °F -0.8 °F 8.6 °F 79% 30.05 in 10.0 mi East 13.8 mph 18.4 mph N/A   Overcast
6:15 AM 14.0 °F 1.2 °F 8.6 °F 79% 30.07 in 10.0 mi East 10.4 mph 18.4 mph N/A   Overcast
6:35 AM 14.0 °F 0.5 °F 8.6 °F 79% 30.07 in 10.0 mi ENE 11.5 mph 16.1 mph N/A   Overcast
6:55 AM 14.0 °F 2.0 °F 8.6 °F 79% 30.07 in 10.0 mi East 9.2 mph - N/A   Overcast
7:15 AM 14.0 °F 1.2 °F 8.6 °F 79% 30.07 in 10.0 mi East 10.4 mph - N/A   Overcast
7:35 AM 14.0 °F 2.0 °F 8.6 °F 79% 30.07 in 10.0 mi East 9.2 mph - N/A   Overcast
7:55 AM 14.0 °F 1.2 °F 8.6 °F 79% 30.07 in 10.0 mi East 10.4 mph - N/A   Overcast
8:15 AM 14.0 °F 2.0 °F 8.6 °F 79% 30.07 in 10.0 mi East 9.2 mph - N/A   Scattered Clouds
8:35 AM 14.0 °F 2.0 °F 8.6 °F 79% 30.08 in 10.0 mi East 9.2 mph - N/A   Scattered Clouds
8:55 AM 14.0 °F -0.2 °F 6.8 °F 73% 30.07 in 10.0 mi East 12.7 mph 16.1 mph N/A   Mostly Cloudy
9:15 AM 14.0 °F -0.2 °F 6.8 °F 73% 30.07 in 10.0 mi East 12.7 mph - N/A   Scattered Clouds
9:35 AM 14.0 °F 1.2 °F 6.8 °F 73% 30.08 in 10.0 mi East 10.4 mph 16.1 mph N/A   Clear
10:15 AM 14.0 °F 0.5 °F 6.8 °F 73% 30.08 in 10.0 mi East 11.5 mph - N/A   Clear
10:35 AM 15.8 °F 2.1 °F 6.8 °F 68% 30.09 in 10.0 mi East 12.7 mph - N/A   Clear
10:55 AM 15.8 °F 1.4 °F 6.8 °F 68% 30.08 in 10.0 mi East 13.8 mph - N/A   Clear
11:15 AM 15.8 °F 4.2 °F 6.8 °F 68% 30.08 in 10.0 mi East 9.2 mph - N/A   Clear
11:35 AM 15.8 °F 5.1 °F 6.8 °F 68% 30.08 in 10.0 mi East 8.1 mph - N/A   Mostly Cloudy
11:55 AM 15.8 °F 2.1 °F 6.8 °F 68% 30.06 in 10.0 mi East 12.7 mph 17.3 mph N/A   Overcast
12:15 PM 17.6 °F 4.3 °F 5.0 °F 58% 30.05 in 10.0 mi East 12.7 mph 16.1 mph N/A   Scattered Clouds
12:35 PM 17.6 °F 5.7 °F 5.0 °F 58% 30.04 in 10.0 mi East 10.4 mph - N/A   Clear
12:55 PM 17.6 °F 5.0 °F 6.8 °F 63% 30.03 in 10.0 mi East 11.5 mph 16.1 mph N/A   Clear
1:15 PM 17.6 °F 5.7 °F 6.8 °F 63% 30.03 in 10.0 mi East 10.4 mph 18.4 mph N/A   Clear
1:35 PM 19.4 °F 7.2 °F 6.8 °F 58% 30.04 in 10.0 mi East 11.5 mph - N/A   Clear
1:55 PM 17.6 °F 8.2 °F 6.8 °F 63% 30.04 in 10.0 mi ENE 6.9 mph 16.1 mph N/A   Clear
2:15 PM 19.4 °F 7.9 °F 6.8 °F 58% 30.04 in 10.0 mi ENE 10.4 mph - N/A   Scattered Clouds
2:35 PM 19.4 °F 8.6 °F 6.8 °F 58% 30.03 in 10.0 mi East 9.2 mph - N/A   Mostly Cloudy
2:55 PM 19.4 °F 6.0 °F 8.6 °F 63% 30.02 in 10.0 mi East 13.8 mph 17.3 mph N/A   Scattered Clouds
3:15 PM 19.4 °F 7.9 °F 8.6 °F 63% 30.01 in 10.0 mi East 10.4 mph - N/A   Clear
3:35 PM 19.4 °F 10.4 °F 8.6 °F 63% 30.00 in 10.0 mi East 6.9 mph - N/A   Clear
3:55 PM 19.4 °F 7.9 °F 10.4 °F 68% 30.01 in 10.0 mi East 10.4 mph 16.1 mph N/A   Clear
4:15 PM 19.4 °F 9.5 °F 10.4 °F 68% 30.02 in 10.0 mi East 8.1 mph - N/A   Mostly Cloudy
4:35 PM 19.4 °F 10.4 °F 10.4 °F 68% 30.02 in 10.0 mi East 6.9 mph - N/A   Overcast
4:55 PM 19.4 °F 10.4 °F 10.4 °F 68% 30.03 in 10.0 mi East 6.9 mph - N/A   Overcast
5:15 PM 19.4 °F 10.4 °F 10.4 °F 68% 30.04 in 10.0 mi ESE 6.9 mph - N/A   Overcast
5:35 PM 19.4 °F 8.6 °F 10.4 °F 68% 30.05 in 10.0 mi ESE 9.2 mph - N/A   Overcast
5:55 PM 19.4 °F 9.5 °F 10.4 °F 68% 30.04 in 10.0 mi ESE 8.1 mph - N/A   Overcast
6:15 PM 19.4 °F 10.4 °F 10.4 °F 68% 30.06 in 10.0 mi SE 6.9 mph - N/A   Overcast
6:35 PM 19.4 °F 10.4 °F 10.4 °F 68% 30.06 in 10.0 mi SE 6.9 mph - N/A   Overcast
6:55 PM 19.4 °F 10.4 °F 12.2 °F 74% 30.07 in 10.0 mi SE 6.9 mph - N/A   Overcast
7:15 PM 19.4 °F 7.2 °F 12.2 °F 74% 30.06 in 10.0 mi SE 11.5 mph - N/A   Overcast
7:35 PM 19.4 °F 11.5 °F 12.2 °F 74% 30.06 in 10.0 mi SE 5.8 mph - N/A   Overcast
7:55 PM 19.4 °F 11.5 °F 12.2 °F 74% 30.06 in 10.0 mi SE 5.8 mph - N/A   Overcast
8:15 PM 19.4 °F 12.8 °F 12.2 °F 74% 30.08 in 10.0 mi SSE 4.6 mph - N/A   Overcast
8:35 PM 19.4 °F 10.4 °F 14.0 °F 80% 30.07 in 10.0 mi SE 6.9 mph - N/A   Overcast
8:55 PM 19.4 °F 8.6 °F 14.0 °F 80% 30.05 in 10.0 mi SE 9.2 mph - N/A   Overcast
9:15 PM 19.4 °F 11.5 °F 14.0 °F 80% 30.06 in 10.0 mi SE 5.8 mph - N/A   Overcast
9:35 PM 19.4 °F 12.8 °F 14.0 °F 80% 30.07 in 10.0 mi SSE 4.6 mph - N/A   Overcast
9:55 PM 19.4 °F 11.5 °F 14.0 °F 80% 30.06 in 10.0 mi SE 5.8 mph - N/A   Overcast
10:15 PM 19.4 °F 12.8 °F 15.8 °F 86% 30.06 in 10.0 mi SE 4.6 mph - N/A   Overcast
10:35 PM 19.4 °F 10.4 °F 15.8 °F 86% 30.04 in 10.0 mi SSE 6.9 mph - N/A   Overcast
10:55 PM 19.4 °F 9.5 °F 15.8 °F 86% 30.05 in 10.0 mi SSE 8.1 mph - N/A   Overcast
11:15 PM 19.4 °F 9.5 °F 15.8 °F 86% 30.06 in 10.0 mi SSE 8.1 mph - N/A   Overcast
11:35 PM 19.4 °F 9.5 °F 15.8 °F 86% 30.06 in 10.0 mi SSE 8.1 mph - N/A   Overcast
11:55 PM 19.4 °F 9.5 °F 15.8 °F 86% 30.07 in 10.0 mi SSE 8.1 mph - N/A   Overcast